CHINASAT 1C (ZX 1C)

Last updated on May 21, 2019, 3:10 a.m. UTC

1 41103U 15073A   19140.23313394 -.00000159  00000-0  00000+0 0  9993
2 41103   0.7033  96.1640 0001987 261.4820  45.3249  1.00271816 12756
UTC
Height (km)
Latitude
Longitude
Inclination
Orbital Period
UTC large
Height (km)
Speed (km/s)
/
Latitude / Longitude
Inclination (degrees)
Orbital Period (minutes)
Azimuth
Elevation
Range (km)
Doppler Factor
iOS Compass Heading
iOS Angle

Next 30 passes for location: Hong Kong

Rise time Rise Azimuth (degrees) Set time Set Azimuth (degrees) Duration Max altitude (degrees)

No matching passes for this satellites